Reflectivity
-20 -20 -20 -20 -20 -20 -20 -20 -20 -20 -20 -20 -20 -20 -20 -20 -20 -20 -20 -20 -20 -20 -20 -20 -20 -20 -20 -20 -20 -20 -20 -20 -20 -20 -20 -20 -20 -20 -20 -20 -20 -20 -20 -20 -20 -20 -20
-20 -20 -20 -20 -20 -20 -20 -20 -20 -20 -20 -20 -20 -20 -20 -20 -20 -20 -20 -20 -20 -20 -20 -20 -20 -20 -20 -20 -20 -20 -20 -20 -20 -20 -20 -20 -20 -20 -20 -20 -20 -20 -20 -20 -20 -20 -20
-20 -20 -20 -20 -20 -20 -20 -20 -20 -20 -20 -20 -20 -20 -20 -20 -20 -20 -20 -20 -20 -20 -20 -20 -20 -20 -20 -20 -20 -20 -20 -20 -20 -20 -20 -20 -20 -20 -20 -20 -20 -20 -20 -20 -20 -20 -20
-20 -20 -20 -20 -20 -20 -20 -20 -20 -20 -20 -20 -20 -20 -20 -20 -20 -20 -20 -20 -20 -20 -20 -20 -20 -20 -20 -20 -20 -20 -20 -20 -20 -20 -20 -20 -20 -20 -20 -20 -20 -20 -20 -20 -20 -20 -20
-20 -20 -20 -20 -20 -20 -20 -20 -20 -20 -20 -20 -20 -20 -20 -20 -20 -20 -20 -20 -20 -20 -20 -20 -20 -20 -20 -20 -20 -20 -20 -20 -20 -20 -20 -20 -20 -20 -20 -20 -20 -20 -20 -20 -20 -20 -20
-20 -20 -20 -20 -20 -20 -20 -20 -20 -20 -20 -20 -20 -20 -20 -20 -20 -20 -20 -20 -20 -20 -20 -20 -20 -20 -20 -20 -20 -20 -20 -20 -20 -20 -20 -20 -20 -20 -20 -20 -20 -20 -20 -20 -20 -20 -20
-20 -20 -20 -20 -20 -20 -20 -20 -20 -20 -20 -20 -20 -20 -20 -20 -20 -20 -20 -20 -20 -20 -20 -20 -20 -20 -20 -20 -20 -20 -20 -20 -20 -20 -20 -20 -20 -20 -20 -20 -20 -20 -20 -20 -20 -20 -20
-20 -20 -20 -20 -20 -20 -20 -20 -20 -20 -20 -20 -20 -20 -20 -20 -20 -20 -20 -20 -20 -20 -20 -20 -20 -20 -20 -20 -20 -20 -20 -20 -20 -20 -20 -20 -20 -20 -20 -20 -20 -20 -20 -20 -20 -20 -20
-20 -20 -20 -20 -20 -20 -20 -20 -20 -20 -20 -20 -20 -20 -20 -20 -20 -14 -20 -20 -20 -20 -20 -20 -20 -20 -20 -20 -20 -20 -20 -20 -20 -20 -20 -20 -20 -20 -20 -20 -20 -20 -20 -20 -20 -20 -20
-20 -20 -20 -20 -20 -20 -20 -20 -20 -20 -20 -20 -20 -20 -20 -20 -20 -20 -20 -20 -20 -20 -20 -20 -20 -20 -20 -20 -20 -20 -20 -20 -20 -20 -20 -20 -20 -20 -20 -20 -20 -20 -20 -20 -20 -20 -20
-20 -20 -20 -20 -20 -20 -20 -20 -20 -20 -20 -20 -20 -20 -20 -20 -20 -20 -20 -20 -20 -20 -20 -20 -20 -20 -20 -20 -20 -20 -20 -20 -20 -20 -20 -20 -20 -20 -20 -20 -20 -20 -20 -20 -20 -20 -20
-20 -20 -20 -20 -20 -20 -20 -20 -20 -20 -20 -20 -20 -20 -20 -20 -20 -20 -20 -20 -20 -20 -20 -20 -20 -20 -20 -20 -20 -20 -20 -20 -20 -20 -20 -20 -20 -20 -20 -20 -20 -20 -20 -20 -20 -20 -20
-20 -20 -20 -20 -20 -20 -20 -20 -20 -20 -20 -20 -20 -20 -20 -20 -20 -20 -20 -20 -20 -20 -20 -20 -20 -20 -20 -20 -20 -20 -20 -20 -20 -20 -20 -20 -20 -20 -20 -20 -20 -20 -20 -20 -20 -20 -20
-20 -20 -20 -20 -20 -20 -20 -20 -20 -20 -20 -20 -20 -20 -20 -20 -20 -20 -20 -20 -20 -20 -20 -20 -20 -20 -20 -20 -20 -20 -20 -20 -20 -20 -20 -20 -20 -20 -20 -20 -20 -20 -20 -20 -20 -20 -20
-20 -20 -20 -20 -20 -20 -20 -20 -20 -20 -20 -20 -20 -20 -20 -20 -20 -20 -20 -20 -20 -20 -20 -20 -20 -20 -20 -20 -20 -20 -20 -20 -20 -20 -20 -20 -20 -20 -20 -20 -20 -20 -20 -20 -20 -20 -20
-20 -20 -20 -20 -20 -20 -20 -20 -20 -20 -20 -20 -20 -20 -20 -20 -20 -20 -20 -20 -20 -20 -20 -20 -20 -20 -20 -20 -20 -20 -20 -20 -20 -20 -20 -20 -20 -20 -20 -20 -20 -20 -20 -20 -20 -20 -20
-20 -20 -20 -20 -20 -20 -20 -20 -20 -20 -20 -20 -20 -20 -20 -20 -20 -20 -20 -20 -20 -20 -20 -20 -20 -20 -20 -20 -20 -20 -20 -20 -20 -20 -20 -20 -20 -20 -20 -20 -20 -20 -20 -20 -20 -20 3
-20 -20 -20 -20 -20 -20 -20 -20 -20 -20 -20 -20 -20 -20 -20 -20 -20 -20 -20 -20 -20 -20 -20 -20 -20 -20 -20 -20 -20 -20 -20 -20 -20 -20 -20 -20 -20 -20 -20 -20 -20 -20 -20 -12 -18 -20 5
-20 -20 -20 -20 -20 -20 -20 -20 -20 -20 -20 -20 -20 -20 -20 -20 -20 -20 -20 -20 -20 -20 -20 -20 -20 -20 -20 -20 -20 -20 -20 -20 -20 -20 -20 -20 -20 -20 -20 -20 -20 -20 -20 -11 -17 -10 1
-20 -20 -20 -20 -20 -20 -20 -20 -20 -20 -20 -20 -20 -20 -20 -20 -20 -20 -20 -20 -20 -20 -20 -20 -20 -20 -20 -20 -20 -20 -20 -20 -20 -20 -20 -20 -20 -20 -20 -20 -20 -20 -20 -20 -13 -5 8
-20 -20 -20 -20 -20 -20 -20 -20 -20 -20 -20 -20 -20 -20 -20 -20 -20 -20 -20 -20 -20 -20 -20 -20 -20 -20 -20 -20 -20 -20 -20 -20 -20 -20 -20 -20 -20 -20 -20 -20 -20 -20 -20 -20 -20 -20 -15
10 -12 -20 -20 -20 -20 -20 -20 -20 -20 -20 -20 -20 -20 -20 -20 -20 -20 -20 -20 -20 -6 -10 -20 -20 -14 -7 -4 -20 -20 -20 -20 -20 -20 -20 -20 -20 -20 -20 -20 -20 -20 -20 -20 -20 -20 -20
-0 8 9 -11 -20 -20 -20 -20 -20 -20 -20 -20 -20 -20 -20 -20 -19 -20 -20 -20 -20 -20 2 -17 -6 -10 -12 -20 -20 -20 -20 -20 -20 -20 -20 -20 -20 -20 -20 -20 -20 -20 -20 -20 -20 -20 -20
3 -2 9 7 -20 -8 -3 -20 -20 -20 -20 -20 -20 -17 -4 6 -7 -20 -7 -20 -14 1 -12 -2 5 -2 -6 -3 -20 -20 -20 -20 -20 -20 -20 -20 -20 -20 -20 -20 -20 -20 -20 -20 -20 -20 -20
-20 -17 1 3 -9 -20 7 23 7 -6 -12 -20 -20 -6 14 9 5 2 3 4 5 13 -15 -20 -20 -13 5 -17 -20 -20 -20 -20 -20 -20 -20 -20 -20 -20 -20 -20 -20 -20 -20 -20 -20 -20 -20
4 9 -2 -16 12 6 11 -10 15 15 11 14 -19 4 13 21 14 9 17 8 -9 -20 -20 -20 -20 -20 -20 -19 -20 -20 -20 -20 -20 -20 -20 -20 -20 -20 -20 -19 -20 -20 -20 -20 -20 -20 -20
15 17 14 11 11 21 20 12 26 26 29 27 20 20 26 24 19 23 17 13 -5 -20 -20 -20 -20 -20 -20 -20 -20 -20 -20 -20 -20 -20 -20 -20 -20 -20 -20 1 -20 -20 -20 -20 -20 -20 -20
18 19 13 9 9 18 13 17 22 26 30 28 25 26 21 25 27 17 -4 -3 20 -11 -20 -20 -17 -19 -20 -20 -20 -20 -20 -20 -20 -20 -20 -20 -20 -20 -16 -17 -17 -20 -20 -20 -20 -20 -20
-0 15 20 15 17 17 23 22 27 31 32 32 28 30 24 29 26 24 14 -17 -12 -8 -20 -20 -20 -20 -20 -20 -20 -20 -20 -20 -20 -20 -20 -20 -20 -20 -20 -20 -20 -20 -20 -20 -20 -20 -20
Wind_Speed
15 15 15 17 17 17 18 19 20 21 21 21 21 21 19 18 17 16 13 11 8 7 7 9 9 9 2 7 3 6 12 11 8 8 8 6 8 5 4 2 3 4 3 3 4 3 3
14 15 16 17 17 18 19 20 20 21 22 22 21 21 20 19 17 16 14 10 8 7 8 9 10 9 2 7 5 8 8 6 7 7 8 8 5 2 3 3 3 1 3 3 3 3 2
13 15 16 17 18 18 19 20 20 21 22 23 22 21 20 19 18 16 14 10 8 8 8 9 9 3 9 1 6 8 9 5 5 4 4 4 4 4 3 2 3 1 2 2 3 1 2
12 13 14 16 17 17 18 19 20 22 22 23 23 22 20 19 18 15 13 8 7 8 9 9 8 3 4 1 3 7 7 5 8 2 1 4 3 2 3 1 2 1 0 0 1 3 2
11 11 13 14 16 17 18 19 20 21 23 24 23 23 21 20 18 14 11 6 7 7 8 8 4 3 3 3 5 6 3 4 7 2 2 3 2 3 6 3 5 4 2 1 4 3 4
9 10 12 13 15 16 18 19 20 21 23 24 24 23 22 19 18 17 12 3 6 7 2 2 2 5 6 6 5 9 6 4 4 7 3 3 5 5 6 7 2 5 4 5 3 4 4
7 8 10 12 14 16 17 18 19 20 22 22 22 22 21 19 19 17 6 4 6 8 11 4 2 3 3 9 3 8 5 6 2 4 5 4 9 3 3 3 2 4 4 5 5 2 4
5 7 9 11 13 14 16 18 19 19 20 22 24 22 20 18 14 15 6 7 1 2 6 3 2 2 2 2 4 11 10 6 7 5 8 8 3 2 4 3 3 4 4 5 5 4 6
4 6 7 9 11 13 15 16 17 18 19 20 22 24 20 17 10 6 8 4 3 2 5 4 1 3 4 4 3 8 6 4 6 7 7 4 2 5 3 5 6 5 3 3 4 9 3
3 4 6 8 10 12 13 14 16 18 18 19 21 22 22 21 6 1 4 4 4 1 7 10 8 5 4 1 4 2 3 2 6 4 4 3 2 4 5 4 3 2 1 3 5 5 4
5 4 6 7 8 10 12 14 16 17 18 19 19 21 18 12 1 4 4 4 4 1 6 7 6 3 7 6 4 6 2 5 2 4 5 3 4 5 4 2 2 6 2 6 3 4 3
6 4 6 7 8 10 12 13 16 17 18 18 19 18 16 5 3 1 3 3 2 7 2 5 4 7 5 5 5 6 6 5 1 4 2 1 1 1 2 4 3 5 4 3 2 2 2
6 5 7 8 8 9 11 12 15 17 18 19 21 15 6 2 3 3 2 2 6 9 5 7 4 5 5 5 6 6 5 8 6 7 8 6 1 0 1 4 4 7 6 5 6 4 6
7 7 7 8 8 9 11 12 14 17 19 19 24 10 1 1 1 1 2 5 11 3 2 3 4 6 4 6 4 7 3 5 7 6 3 4 9 1 2 2 4 4 4 6 5 3 5
8 8 8 8 8 9 10 12 14 16 18 19 16 3 3 2 1 2 4 9 3 0 3 6 6 5 5 5 1 7 5 3 3 5 4 4 6 1 2 1 3 2 1 4 2 3 2
9 8 8 8 8 8 9 11 13 16 19 18 3 4 4 1 3 3 8 5 2 2 3 3 3 4 5 6 6 6 3 3 3 4 3 3 6 2 2 1 4 4 3 3 2 3 6
10 9 8 8 7 8 9 9 11 14 19 18 3 5 4 2 2 7 6 3 3 1 2 3 1 3 4 3 3 4 3 2 4 5 5 2 3 8 3 5 4 1 3 2 2 3 4
10 9 9 8 7 6 7 8 9 12 20 7 2 4 4 1 7 4 3 2 2 1 2 2 1 2 2 3 3 3 2 2 1 0 4 4 2 5 11 3 2 3 4 2 3 5 2
11 10 9 9 7 5 5 6 6 7 11 2 2 3 5 4 5 3 0 2 2 0 1 3 2 3 1 3 4 1 3 4 3 3 4 2 1 7 7 0 4 2 1 3 1 1 10
12 12 11 10 8 6 5 5 3 3 6 3 3 4 5 6 1 5 1 2 2 1 1 2 1 2 2 3 4 4 2 3 5 3 6 3 2 7 9 5 5 12 8 8 4 6 6
13 12 12 10 10 8 7 6 5 2 3 2 3 1 2 2 3 3 2 3 3 3 1 2 1 3 1 3 5 5 3 5 1 4 2 4 5 5 11 10 10 16 17 14 14 15 11
13 13 13 12 12 10 9 8 8 6 1 3 2 3 2 0 1 1 2 4 4 1 5 4 4 5 3 5 6 4 5 1 5 2 2 1 5 4 8 5 5 13 12 14 11 9 11
15 16 14 13 13 12 11 10 11 11 5 2 1 1 2 1 1 2 4 3 4 4 2 3 1 2 5 6 2 5 6 6 5 2 1 3 2 4 7 8 12 5 4 3 4 2 4
11 3 15 15 15 14 13 13 14 15 8 3 3 3 3 3 4 5 2 2 2 1 1 1 0 2 1 5 6 6 7 10 7 4 4 4 3 2 6 7 3 1 2 2 3 6 6
7 7 10 4 16 16 15 16 17 18 15 3 3 4 3 3 3 2 4 4 2 1 3 4 4 1 4 4 4 7 4 2 4 4 3 3 4 3 3 2 9 3 3 3 4 1 5
5 6 7 8 8 4 11 14 17 19 20 4 2 2 3 4 7 3 4 4 4 4 2 3 2 2 1 1 1 2 4 2 2 3 4 1 1 4 1 4 6 2 1 3 1 4 4
1 2 4 6 6 4 5 6 3 16 20 4 2 3 3 3 3 5 4 5 5 2 1 1 2 1 1 2 3 4 5 1 3 3 4 2 1 8 8 5 7 1 3 2 0 1 4
2 2 3 2 3 1 2 3 3 3 18 5 2 1 2 3 1 4 4 5 2 3 4 4 2 1 2 3 3 4 3 3 1 3 6 7 6 5 3 4 8 2 1 1 1 1 2
3 3 1 4 3 1 2 1 2 2 17 6 3 2 2 3 2 2 2 3 3 2 4 4 1 3 4 2 1 1 3 2 3 4 2 4 5 3 7 4 2 3 3 4 4 2 4
Wind_Direction
42 42 37 35 28 23 19 17 14 9 9 5 2 1 360 356 354 353 354 357 360 357 349 338 339 357 340 47 32 312 341 352 352 2 26 5 33 16 68 41 27 86 157 90 138 183 231
42 41 36 34 27 24 20 18 13 8 7 4 3 0 357 354 351 353 351 350 343 345 337 334 341 330 18 64 289 329 346 350 8 22 26 30 14 327 334 41 60 18 59 133 197 218 250
43 39 36 32 25 22 21 17 12 7 6 3 1 360 356 353 348 354 351 346 331 330 334 329 341 342 60 91 324 332 1 323 359 33 22 6 344 54 323 64 327 77 1 316 256 264 338
44 38 36 33 25 19 18 15 8 5 3 4 1 357 355 350 346 348 345 339 316 319 324 320 331 34 74 286 315 349 348 337 357 326 76 291 349 353 55 263 339 232 159 260 225 13 276
46 34 33 32 25 17 13 12 7 4 360 360 1 356 353 350 341 342 333 321 303 308 301 307 5 47 20 303 6 316 12 322 308 310 245 277 29 68 10 11 19 3 283 236 333 30 344
44 27 28 24 22 15 9 7 5 2 357 355 357 355 349 348 338 342 327 280 308 316 301 297 358 52 15 321 311 318 307 309 329 323 28 26 49 63 24 35 264 315 342 344 338 352 360
34 22 21 17 16 12 6 4 1 360 354 352 355 352 348 345 339 342 6 12 26 356 35 89 259 87 342 308 303 350 334 328 282 25 16 358 61 63 341 354 304 305 311 325 291 322 6
19 15 11 13 10 9 3 359 356 355 353 351 349 351 348 344 340 359 52 71 86 211 76 22 8 97 239 1 344 343 2 40 29 19 357 27 70 288 312 288 319 320 317 322 297 337 352
1 1 1 6 3 3 356 353 351 351 350 349 348 345 343 341 328 43 80 63 295 353 101 19 15 40 307 22 39 325 25 337 38 31 14 97 259 314 339 13 29 36 47 351 266 320 298
315 340 349 354 357 354 346 344 347 347 346 347 349 347 339 338 51 26 59 330 320 334 83 328 350 350 323 152 25 320 8 85 22 43 2 78 294 0 342 58 43 356 308 304 309 16 255
284 318 328 339 347 344 337 340 344 344 343 343 348 346 344 12 238 49 305 325 296 50 67 319 329 288 306 68 296 336 338 27 68 311 73 287 13 8 24 326 17 250 309 257 214 242 13
267 296 309 322 333 335 330 339 340 340 339 339 341 344 339 21 39 269 303 335 49 45 314 336 347 356 14 25 6 327 14 31 38 357 316 108 130 83 211 281 229 279 304 319 154 86 348
259 276 291 304 321 324 328 336 335 336 336 337 335 336 346 320 322 312 352 61 48 78 299 321 329 353 345 336 342 9 78 38 40 29 4 338 333 181 91 329 325 16 34 340 352 4 236
242 257 276 290 310 319 326 334 334 335 334 336 330 330 299 200 294 34 87 54 69 273 328 359 325 320 50 2 324 338 45 34 15 28 52 34 333 325 297 150 237 296 126 148 268 274 278
239 251 268 291 305 317 328 332 336 333 331 336 329 343 337 251 210 82 68 52 161 305 312 336 316 53 2 342 322 30 55 48 42 27 79 25 276 244 266 260 131 335 193 179 256 234 46
237 248 263 278 296 312 325 332 339 333 329 339 357 349 293 287 127 69 67 110 118 16 331 339 51 30 10 334 20 23 27 304 351 36 67 272 286 266 275 346 271 197 260 35 17 299 284
229 238 251 264 284 307 320 334 340 337 329 331 28 32 268 55 83 46 89 92 118 137 34 43 35 7 2 1 298 336 21 3 30 331 338 329 172 291 17 207 201 315 296 245 201 185 235
228 233 241 257 273 292 312 335 342 349 337 46 12 42 296 87 51 46 53 39 327 40 306 297 29 349 351 330 311 340 355 203 162 7 351 352 274 279 242 318 201 163 204 159 142 298 286
229 233 236 246 257 268 293 315 336 359 26 358 35 273 310 64 83 42 209 86 84 147 24 357 26 31 30 295 334 3 295 201 166 137 146 334 260 309 324 34 354 4 229 210 124 300 243
221 229 232 237 239 241 249 269 292 340 7 80 50 16 336 37 108 111 95 175 177 210 114 65 359 360 321 288 226 276 257 217 202 175 141 106 246 204 242 272 326 291 299 296 205 252 297
223 225 228 229 232 230 220 225 221 235 353 87 38 278 185 334 8 90 185 195 184 192 226 147 201 212 167 291 292 237 213 347 236 140 115 124 257 243 274 296 285 281 283 277 257 258 236
223 229 224 223 225 226 214 204 196 195 180 74 120 119 357 331 72 183 221 202 199 198 157 221 203 175 198 225 217 298 18 172 252 287 183 173 272 307 283 247 310 285 274 270 263 261 261
225 217 222 225 224 222 215 197 186 183 164 104 212 30 121 157 101 156 229 199 190 135 32 44 162 176 255 262 330 261 235 255 246 141 234 247 245 356 274 337 310 279 202 312 303 12 330
39 348 224 219 222 221 209 195 185 181 176 134 171 126 118 228 179 204 197 103 127 48 251 174 173 167 330 312 286 267 242 240 212 217 188 250 131 170 280 338 290 145 46 355 328 41 18
40 30 36 258 220 214 210 200 189 186 180 126 154 137 159 213 186 195 177 137 118 169 246 230 195 38 343 320 345 331 335 30 28 45 3 346 145 261 264 265 287 138 14 41 31 26 30
47 41 40 48 44 59 219 210 191 190 186 119 156 127 156 139 222 100 138 173 187 195 241 235 63 24 265 149 115 239 262 282 262 312 3 18 23 182 177 254 267 110 114 4 340 261 20
62 59 46 38 34 50 61 50 169 198 174 121 124 165 121 179 191 144 184 176 156 166 157 141 186 145 217 149 186 208 240 227 256 236 173 135 240 218 233 261 280 149 302 321 36 250 12
333 240 141 54 17 356 74 54 31 97 155 111 101 154 158 138 172 193 177 147 126 210 168 138 115 219 138 196 193 235 200 228 273 222 188 179 177 206 187 241 263 321 2 184 91 59 26
256 185 159 185 201 103 340 187 227 287 147 117 97 58 351 78 104 14 23 359 344 65 131 182 236 157 171 174 212 152 231 176 200 260 238 234 202 199 195 237 127 40 93 88 78 39 357